| time (UTC) | temp C | wind direction | speed KPH | gust KPH | rain 1hr cm | rain 24hr cm | rain mn cm | humidity % | barometer mb |
| 20260508094515 | 15 | 113 | 0.0 | 0.0 | 0.00 | 0.00 | 0.00 | 95 | 1015.0 |
| 20260508093019 | 15 | 360 | 0.0 | 0.0 | 0.00 | 0.00 | 0.00 | 95 | 1015.1 |
| 20260508091518 | 15 | 333 | 0.0 | 0.0 | 0.00 | 0.00 | 0.00 | 95 | 1015.5 |
| 20260508090018 | 15 | 174 | 0.0 | 1.6 | 0.00 | 0.30 | 0.00 | 95 | 1015.1 |
| 20260508084519 | 15 | 94 | 0.0 | 0.0 | 0.00 | 1.22 | 0.00 | 95 | 1014.6 |
| 20260508083017 | 15 | 90 | 0.0 | 1.6 | 0.00 | 1.27 | 0.00 | 95 | 1014.6 |
| 20260508081522 | 15 | 117 | 1.6 | 1.6 | 0.00 | 1.27 | 0.00 | 95 | 1015.0 |
| 20260508080021 | 15 | 159 | 0.0 | 0.0 | 0.00 | 1.42 | 0.00 | 95 | 1015.7 |
| 20260508074519 | 15 | 174 | 0.0 | 0.0 | 0.00 | 1.47 | 0.00 | 95 | 1015.7 |
| 20260508073020 | 15 | 174 | 0.0 | 0.0 | 0.00 | 1.47 | 0.00 | 95 | 1015.5 |
| 20260508071521 | 15 | 174 | 0.0 | 1.6 | 0.00 | 1.47 | 0.00 | 95 | 1015.6 |
| 20260508070022 | 15 | 160 | 0.0 | 0.0 | 0.00 | 1.52 | 0.00 | 94 | 1015.4 |
| 20260508064519 | 15 | 160 | 0.0 | 3.2 | 0.00 | 1.55 | 0.00 | 94 | 1015.3 |
| 20260508063022 | 15 | 138 | 0.0 | 0.0 | 0.00 | 1.55 | 0.00 | 94 | 1015.3 |
| 20260508061524 | 15 | 146 | 0.0 | 0.0 | 0.00 | 1.55 | 0.00 | 94 | 1015.5 |
| 20260508060027 | 15 | 153 | 0.0 | 0.0 | 0.00 | 1.55 | 0.00 | 93 | 1015.5 |
| 20260508054602 | 15 | 141 | 0.0 | 0.0 | 0.00 | 1.55 | 0.00 | 94 | 1015.8 |
| 20260508053031 | 15 | 141 | 0.0 | 0.0 | 0.00 | 1.55 | 0.00 | 93 | 1015.6 |
| 20260508051523 | 16 | 141 | 0.0 | 0.0 | 0.00 | 1.57 | 0.00 | 93 | 1015.6 |
| 20260508050024 | 16 | 141 | 0.0 | 0.0 | 0.00 | 2.44 | 0.00 | 93 | 1015.8 |
| 20260508044524 | 16 | 141 | 0.0 | 0.0 | 0.00 | 3.53 | 2.44 | 93 | 1016.0 |
| 20260508043004 | 16 | 82 | 0.0 | 0.0 | 0.00 | 3.91 | 2.44 | 94 | 1016.3 |
| 20260508041513 | 16 | 335 | 0.0 | 0.0 | 0.00 | 4.01 | 2.44 | 93 | 1016.4 |
| 20260508040015 | 16 | 122 | 0.0 | 0.0 | 0.00 | 4.01 | 2.44 | 93 | 1016.0 |
| 20260508034523 | 16 | 122 | 0.0 | 0.0 | 0.00 | 4.01 | 2.44 | 93 | 1016.5 |
| 20260508033006 | 16 | 49 | 0.0 | 0.0 | 0.00 | 4.01 | 2.44 | 93 | 1016.7 |
| 20260508031507 | 16 | 358 | 0.0 | 0.0 | 0.00 | 4.01 | 2.44 | 92 | 1016.5 |
| 20260508030010 | 16 | 61 | 0.0 | 0.0 | 0.00 | 4.01 | 2.44 | 92 | 1016.7 |
| 20260508024514 | 16 | 61 | 0.0 | 0.0 | 0.00 | 4.01 | 2.44 | 92 | 1016.5 |
| 20260508023019 | 16 | 61 | 0.0 | 0.0 | 0.00 | 4.01 | 2.44 | 91 | 1016.3 |
| 20260508021504 | 16 | 61 | 0.0 | 0.0 | 0.00 | 4.01 | 2.44 | 91 | 1015.9 |
| 20260508020008 | 17 | 61 | 0.0 | 0.0 | 0.00 | 4.01 | 2.44 | 90 | 1015.4 |
| 20260508014511 | 17 | 60 | 0.0 | 0.0 | 0.00 | 4.01 | 2.44 | 89 | 1015.5 |
| 20260508013016 | 17 | 9 | 0.0 | 0.0 | 0.00 | 4.01 | 2.44 | 88 | 1015.6 |
| 20260508011522 | 17 | 321 | 0.0 | 0.0 | 0.00 | 4.01 | 2.44 | 87 | 1015.7 |
| 20260508010012 | 17 | 332 | 0.0 | 1.6 | 0.00 | 4.01 | 2.44 | 86 | 1015.7 |
| 20260508004518 | 18 | 6 | 0.0 | 0.0 | 0.00 | 4.01 | 2.44 | 86 | 1015.5 |
| 20260508003014 | 18 | 15 | 0.0 | 1.6 | 0.00 | 4.01 | 2.44 | 84 | 1015.4 |
| 20260508001518 | 18 | 306 | 1.6 | 4.8 | 0.00 | 4.52 | 2.44 | 84 | 1015.5 |
| 20260508000023 | 18 | 310 | 1.6 | 4.8 | 0.00 | 4.60 | 2.44 | 83 | 1015.4 |
| 20260507234507 | 19 | 323 | 3.2 | 8.0 | 0.00 | 4.62 | 2.44 | 83 | 1015.3 |
| 20260507233011 | 19 | 339 | 3.2 | 4.8 | 0.00 | 4.62 | 2.44 | 83 | 1015.4 |
| 20260507231517 | 19 | 325 | 3.2 | 4.8 | 0.00 | 4.62 | 2.44 | 83 | 1015.4 |
| 20260507230026 | 19 | 311 | 1.6 | 11.3 | 0.00 | 4.62 | 2.44 | 82 | 1015.5 |
| 20260507224526 | 20 | 269 | 1.6 | 14.5 | 0.00 | 4.62 | 2.44 | 81 | 1015.4 |
| 20260507223007 | 20 | 306 | 6.4 | 14.5 | 0.00 | 4.62 | 2.44 | 81 | 1015.5 |
| 20260507221515 | 20 | 305 | 4.8 | 12.9 | 0.00 | 4.62 | 2.44 | 80 | 1015.4 |
| 20260507220018 | 20 | 307 | 4.8 | 12.9 | 0.00 | 4.62 | 2.44 | 80 | 1015.4 |
| 20260507214522 | 20 | 316 | 4.8 | 11.3 | 0.00 | 4.62 | 2.44 | 81 | 1015.3 |
| 20260507213026 | 20 | 347 | 3.2 | 12.9 | 0.00 | 4.62 | 2.44 | 80 | 1015.1 |
| 20260507211508 | 21 | 352 | 3.2 | 9.7 | 0.00 | 4.62 | 2.44 | 81 | 1014.9 |
| 20260507210015 | 20 | 320 | 6.4 | 12.9 | 0.00 | 4.62 | 2.44 | 80 | 1014.9 |
| 20260507204523 | 20 | 298 | 4.8 | 11.3 | 0.00 | 4.62 | 2.44 | 80 | 1015.1 |
| 20260507203032 | 21 | 319 | 6.4 | 16.1 | 0.00 | 4.65 | 2.44 | 79 | 1015.0 |
| 20260507201524 | 21 | 327 | 6.4 | 11.3 | 0.00 | 4.75 | 2.44 | 79 | 1015.0 |
| 20260507200011 | 21 | 320 | 6.4 | 11.3 | 0.00 | 4.75 | 2.44 | 79 | 1015.2 |
| 20260507194518 | 21 | 285 | 4.8 | 9.7 | 0.00 | 4.75 | 2.44 | 79 | 1015.1 |
| 20260507193022 | 22 | 316 | 4.8 | 17.7 | 0.00 | 4.75 | 2.44 | 78 | 1015.2 |
| 20260507191504 | 22 | 315 | 6.4 | 14.5 | 0.00 | 4.75 | 2.44 | 77 | 1015.1 |
| 20260507190010 | 22 | 304 | 3.2 | 9.7 | 0.00 | 4.75 | 2.44 | 77 | 1015.0 |
| 20260507184514 | 22 | 343 | 3.2 | 11.3 | 0.00 | 4.75 | 2.44 | 79 | 1015.2 |
| 20260507183034 | 21 | 11 | 4.8 | 9.7 | 0.00 | 4.75 | 2.44 | 80 | 1015.1 |
| 20260507181521 | 21 | 346 | 6.4 | 14.5 | 0.00 | 4.75 | 2.44 | 80 | 1015.3 |
| 20260507180006 | 21 | 334 | 4.8 | 12.9 | 0.00 | 4.75 | 2.44 | 81 | 1015.3 |
| 20260507174512 | 21 | 316 | 4.8 | 14.5 | 0.00 | 4.75 | 2.44 | 82 | 1015.4 |
| 20260507173014 | 21 | 322 | 6.4 | 12.9 | 0.00 | 4.75 | 2.44 | 81 | 1015.4 |
| 20260507171521 | 21 | 273 | 4.8 | 9.7 | 0.00 | 4.75 | 2.44 | 81 | 1015.6 |
| 20260507170023 | 21 | 359 | 4.8 | 9.7 | 0.00 | 4.75 | 2.44 | 83 | 1015.8 |
| 20260507164508 | 20 | 55 | 4.8 | 12.9 | 0.00 | 4.75 | 2.44 | 83 | 1015.9 |
| 20260507163011 | 19 | 316 | 3.2 | 8.0 | 0.00 | 4.75 | 2.44 | 86 | 1015.9 |
| 20260507161521 | 19 | 340 | 4.8 | 9.7 | 0.00 | 4.75 | 2.44 | 88 | 1016.1 |
| 20260507160037 | 18 | 303 | 1.6 | 8.0 | 0.00 | 4.75 | 2.44 | 88 | 1016.0 |
| 20260507154529 | 18 | 102 | 1.6 | 6.4 | 0.00 | 4.75 | 2.44 | 89 | 1015.8 |
| 20260507153009 | 17 | 312 | 4.8 | 9.7 | 0.00 | 4.75 | 2.44 | 90 | 1015.7 |
| 20260507151514 | 17 | 335 | 4.8 | 9.7 | 0.00 | 4.75 | 2.44 | 90 | 1015.8 |
| 20260507150025 | 17 | 314 | 4.8 | 8.0 | 0.00 | 4.75 | 2.44 | 93 | 1015.7 |
| 20260507144532 | 16 | 310 | 4.8 | 8.0 | 0.00 | 4.75 | 2.44 | 93 | 1015.8 |
| 20260507143025 | 16 | 302 | 4.8 | 14.5 | 0.00 | 4.75 | 2.44 | 93 | 1015.9 |
| 20260507141516 | 16 | 302 | 8.0 | 14.5 | 0.00 | 4.75 | 2.44 | 93 | 1015.9 |
| 20260507140018 | 16 | 307 | 4.8 | 9.7 | 0.00 | 4.75 | 2.44 | 93 | 1015.9 |
| 20260507134520 | 16 | 293 | 4.8 | 12.9 | 0.00 | 4.75 | 2.44 | 93 | 1015.5 |
| 20260507133024 | 17 | 313 | 4.8 | 14.5 | 0.00 | 4.75 | 2.44 | 93 | 1015.5 |
| 20260507131523 | 17 | 293 | 6.4 | 12.9 | 0.00 | 4.75 | 2.44 | 93 | 1015.3 |
| 20260507130022 | 17 | 40 | 3.2 | 11.3 | 0.00 | 4.75 | 2.44 | 94 | 1015.2 |
| 20260507124519 | 17 | 327 | 6.4 | 12.9 | 0.00 | 4.75 | 2.44 | 93 | 1015.1 |
| 20260507123019 | 18 | 1 | 6.4 | 14.5 | 0.00 | 4.75 | 2.44 | 94 | 1014.3 |
| 20260507121524 | 18 | 315 | 1.6 | 9.7 | 0.00 | 4.75 | 2.44 | 93 | 1014.2 |
| 20260507120028 | 18 | 333 | 3.2 | 14.5 | 0.00 | 4.75 | 2.44 | 93 | 1013.7 |
| 20260507114515 | 18 | 309 | 3.2 | 16.1 | 0.00 | 4.75 | 2.44 | 93 | 1013.3 |
| 20260507113020 | 18 | 36 | 8.0 | 14.5 | 0.00 | 4.75 | 2.44 | 93 | 1013.3 |
| 20260507111523 | 18 | 303 | 4.8 | 11.3 | 0.00 | 4.75 | 2.44 | 93 | 1013.0 |
| 20260507110029 | 18 | 343 | 6.4 | 12.9 | 0.00 | 4.75 | 2.44 | 93 | 1012.8 |
| 20260507104528 | 19 | 330 | 3.2 | 8.0 | 0.00 | 4.75 | 2.44 | 93 | 1012.4 |
| 20260507103017 | 19 | 328 | 3.2 | 8.0 | 0.00 | 4.75 | 2.44 | 93 | 1012.4 |
| 20260507101502 | 19 | 335 | 1.6 | 8.0 | 0.00 | 4.75 | 2.44 | 93 | 1012.1 |
| 20260507100006 | 19 | 297 | 1.6 | 8.0 | 0.30 | 4.75 | 2.44 | 93 | 1012.1 |